Location: Newark
(47.5833°N, 8.1500°E)
Time: 08:09:25
(UTC+00:00)

Altair - Pass Details

Date: 27 October 2020
Orbit: 1502 x 1682 km, 47.2° (Epoch: 03 December)

Event Time Altitude Azimuth Distance (km) Brightness Sun altitude
Exits shadow 02:17:15 - 163° (SSE) 4,272 9.7 -38.1°
Reaches altitude 10° 02:21:13 10° 142° (SE) 3,673 9.6 -37.5°
Maximum altitude 02:24:19 12° 122° (ESE) 3,527 9.7 -37.1°
Drops below altitude 10° 02:27:27 10° 102° (ESE) 3,714 10.0 -36.6°
Sets 02:33:13 0° 75° (ENE) 4,744 11.1 -35.7°
